EXS9RJ EGCC-LGTS

Flight info

Callsign EXS9RJ
Flight time 3h 7m
Altitude 35000
Route DESIG L603 DOLAS DCT NAVPI DCT NOLRU DCT DOJOH DCT DODEN DCT NEGIX DCT DINKU DCT BESNI DCT LATLO DCT OBEDI DCT NAKUM DCT KFT DCT TEBLI DCT MEDUX UM867 KOGAT DCT BUREK DCT PEP T217 TALAS N130 ALIKO
Aircraft A321/M-SDE3FGHIRWY/LB1

Departure

Time 2026-05-05 12:52
Airport Manchester Airport (EGCC)

Arrival

Time 2026-05-05 16:00
Airport Thessaloniki Macedonia International Airport (LGTS)
Time Latitude Longitude Altitude Speed Heading
2026-05-05 12:34 53.36837 -2.28885 255 ft 0 kts 135°
2026-05-05 12:40 53.36844 -2.28897 255 ft 4 kts 135°
2026-05-05 12:40 53.36860 -2.28924 255 ft 4 kts 148°
2026-05-05 12:40 53.36876 -2.28925 255 ft 4 kts 224°
2026-05-05 12:41 53.36881 -2.28917 255 ft 4 kts 225°
2026-05-05 12:41 53.36871 -2.28933 255 ft 0 kts 225°
2026-05-05 12:43 53.36864 -2.28945 255 ft 5 kts 224°
2026-05-05 12:44 53.36820 -2.29008 255 ft 12 kts 212°
2026-05-05 12:44 53.36738 -2.29024 255 ft 12 kts 143°
2026-05-05 12:44 53.36680 -2.28934 255 ft 10 kts 135°
2026-05-05 12:44 53.36624 -2.28878 255 ft 9 kts 147°
2026-05-05 12:45 53.36588 -2.28803 255 ft 8 kts 120°
2026-05-05 12:45 53.36555 -2.28718 255 ft 9 kts 129°
2026-05-05 12:45 53.36511 -2.28640 255 ft 9 kts 134°
2026-05-05 12:45 53.36464 -2.28561 255 ft 10 kts 135°
2026-05-05 12:46 53.36387 -2.28477 255 ft 16 kts 165°
2026-05-05 12:46 53.36295 -2.28387 255 ft 15 kts 135°
2026-05-05 12:46 53.36227 -2.28269 255 ft 13 kts 134°
2026-05-05 12:46 53.36166 -2.28167 255 ft 12 kts 134°
2026-05-05 12:47 53.36096 -2.28056 255 ft 15 kts 138°
2026-05-05 12:47 53.36009 -2.27926 255 ft 18 kts 139°
2026-05-05 12:47 53.35902 -2.27849 255 ft 17 kts 181°
2026-05-05 12:47 53.35778 -2.27868 249 ft 20 kts 185°
2026-05-05 12:48 53.35637 -2.27896 241 ft 18 kts 198°
2026-05-05 12:48 53.35546 -2.28057 237 ft 21 kts 223°
2026-05-05 12:48 53.35420 -2.28159 238 ft 19 kts 189°
2026-05-05 12:48 53.35288 -2.28221 232 ft 21 kts 214°
2026-05-05 12:49 53.35187 -2.28393 229 ft 22 kts 230°
2026-05-05 12:49 53.35087 -2.28592 229 ft 22 kts 230°
2026-05-05 12:49 53.34989 -2.28784 226 ft 22 kts 226°
2026-05-05 12:49 53.34879 -2.28979 221 ft 25 kts 226°
2026-05-05 12:50 53.34768 -2.29190 218 ft 20 kts 231°
2026-05-05 12:50 53.34692 -2.29317 210 ft 8 kts 209°
2026-05-05 12:50 53.34681 -2.29326 211 ft 0 kts 205°
2026-05-05 12:50 53.34671 -2.29333 214 ft 4 kts 202°
2026-05-05 12:51 53.34633 -2.29342 217 ft 7 kts 181°
2026-05-05 12:51 53.34571 -2.29314 213 ft 11 kts 146°
2026-05-05 12:51 53.34540 -2.29216 219 ft 9 kts 59°
2026-05-05 12:51 53.34576 -2.29132 223 ft 10 kts 50°
2026-05-05 12:52 53.34694 -2.28899 224 ft 56 kts 50°
2026-05-05 12:52 53.35086 -2.28097 234 ft 119 kts 51°
2026-05-05 12:52 53.35714 -2.26804 286 ft 162 kts 46°
2026-05-05 12:52 53.36418 -2.25326 923 ft 161 kts 49°
2026-05-05 12:53 53.37102 -2.23834 1689 ft 161 kts 49°
2026-05-05 12:53 53.37781 -2.22334 2239 ft 165 kts 49°
2026-05-05 12:53 53.38509 -2.20723 2510 ft 182 kts 48°
2026-05-05 12:53 53.39319 -2.18985 2804 ft 197 kts 48°
2026-05-05 12:54 53.41237 -2.15042 3112 ft 242 kts 49°
2026-05-05 12:54 53.42328 -2.12779 3654 ft 254 kts 49°
2026-05-05 12:54 53.43438 -2.10446 4435 ft 259 kts 50°
2026-05-05 12:55 53.44544 -2.08105 5252 ft 260 kts 50°
2026-05-05 12:55 53.45687 -2.05675 6025 ft 264 kts 51°
2026-05-05 12:55 53.46834 -2.03231 6717 ft 269 kts 51°
2026-05-05 12:55 53.48004 -2.00740 7384 ft 274 kts 50°
2026-05-05 12:56 53.49181 -1.98246 8027 ft 278 kts 50°
2026-05-05 12:56 53.50416 -1.95645 8681 ft 284 kts 50°
2026-05-05 12:56 53.51499 -1.92890 9297 ft 291 kts 64°
2026-05-05 12:56 53.52086 -1.89609 9914 ft 297 kts 82°
2026-05-05 12:57 53.52091 -1.86134 10542 ft 300 kts 98°
2026-05-05 12:57 53.51582 -1.82661 10876 ft 316 kts 106°
2026-05-05 12:57 53.50947 -1.79000 11013 ft 337 kts 107°
2026-05-05 12:57 53.50259 -1.75113 11229 ft 354 kts 107°
2026-05-05 12:58 53.49549 -1.71121 11782 ft 359 kts 107°
2026-05-05 12:58 53.48825 -1.67076 12381 ft 363 kts 107°
2026-05-05 12:58 53.48094 -1.62991 12950 ft 368 kts 107°
2026-05-05 12:58 53.47597 -1.60205 13382 ft 370 kts 107°
2026-05-05 12:59 53.46860 -1.56060 13984 ft 373 kts 107°
2026-05-05 12:59 53.46124 -1.51926 14516 ft 376 kts 107°
2026-05-05 12:59 53.45369 -1.47702 15047 ft 380 kts 107°
2026-05-05 13:00 53.43828 -1.39149 16089 ft 386 kts 108°
2026-05-05 13:00 53.43042 -1.34814 16596 ft 390 kts 108°
2026-05-05 13:01 53.40630 -1.21530 18141 ft 401 kts 108°
2026-05-05 13:01 53.39820 -1.17047 18590 ft 404 kts 108°
2026-05-05 13:01 53.39001 -1.12529 19039 ft 406 kts 109°
2026-05-05 13:01 53.38184 -1.08052 19483 ft 408 kts 109°
2026-05-05 13:02 53.37338 -1.03437 19917 ft 410 kts 109°
2026-05-05 13:02 53.36496 -0.98858 20305 ft 414 kts 109°
2026-05-05 13:02 53.35655 -0.94296 20716 ft 417 kts 109°
2026-05-05 13:02 53.34784 -0.89590 21160 ft 419 kts 109°
2026-05-05 13:03 53.33928 -0.84989 21593 ft 421 kts 110°
2026-05-05 13:03 53.33052 -0.80298 22029 ft 424 kts 110°
2026-05-05 13:03 53.32169 -0.75583 22454 ft 426 kts 110°
2026-05-05 13:03 53.31278 -0.70838 22887 ft 429 kts 110°
2026-05-05 13:04 53.30385 -0.66071 23294 ft 431 kts 110°
2026-05-05 13:04 53.29488 -0.61280 23680 ft 433 kts 110°
2026-05-05 13:04 53.28586 -0.56466 24020 ft 435 kts 110°
2026-05-05 13:04 53.27678 -0.51639 24397 ft 436 kts 110°
2026-05-05 13:05 53.26764 -0.46803 24762 ft 437 kts 110°
2026-05-05 13:05 53.25847 -0.41952 25128 ft 438 kts 110°
2026-05-05 13:05 53.24926 -0.37101 25482 ft 439 kts 110°
2026-05-05 13:05 53.23999 -0.32241 25901 ft 439 kts 109°
2026-05-05 13:06 53.23076 -0.27391 26276 ft 439 kts 109°
2026-05-05 13:06 53.22144 -0.22523 26637 ft 441 kts 109°
2026-05-05 13:06 53.21207 -0.17651 26971 ft 442 kts 110°
2026-05-05 13:06 53.20263 -0.12762 27307 ft 444 kts 109°
2026-05-05 13:07 53.19316 -0.07857 27642 ft 445 kts 109°
2026-05-05 13:07 53.18364 -0.02942 27963 ft 446 kts 109°
2026-05-05 13:07 53.17405 0.01988 28244 ft 449 kts 110°
2026-05-05 13:07 53.16440 0.06951 28516 ft 451 kts 110°
2026-05-05 13:08 53.15472 0.11930 28797 ft 453 kts 110°
2026-05-05 13:08 53.14497 0.16925 29074 ft 454 kts 110°
2026-05-05 13:08 53.13515 0.21932 29344 ft 456 kts 110°
2026-05-05 13:08 53.12524 0.26962 29631 ft 458 kts 110°
2026-05-05 13:09 53.11527 0.32005 29916 ft 459 kts 110°
2026-05-05 13:09 53.10527 0.37057 30192 ft 460 kts 110°
2026-05-05 13:09 53.09526 0.42110 30542 ft 459 kts 110°
2026-05-05 13:09 53.08529 0.47137 30900 ft 457 kts 110°
2026-05-05 13:10 53.07535 0.52153 31245 ft 456 kts 110°
2026-05-05 13:10 53.06540 0.57170 31507 ft 457 kts 110°
2026-05-05 13:10 53.05541 0.62192 31808 ft 457 kts 110°
2026-05-05 13:10 53.04538 0.67200 32151 ft 456 kts 110°
2026-05-05 13:11 53.03534 0.72191 32495 ft 455 kts 110°
2026-05-05 13:11 53.02527 0.77169 32853 ft 453 kts 110°
2026-05-05 13:11 53.01523 0.82120 33205 ft 452 kts 110°
2026-05-05 13:11 53.00519 0.87063 33550 ft 451 kts 110°
2026-05-05 13:12 52.99532 0.91921 33817 ft 450 kts 110°
2026-05-05 13:12 52.98529 0.96844 34081 ft 451 kts 110°
2026-05-05 13:12 52.97515 1.01767 34304 ft 450 kts 111°
2026-05-05 13:12 52.96455 1.06660 34493 ft 452 kts 112°
2026-05-05 13:13 52.95352 1.11538 34684 ft 452 kts 113°
2026-05-05 13:13 52.94229 1.16413 34880 ft 452 kts 113°
2026-05-05 13:13 52.93099 1.21283 34982 ft 452 kts 113°
2026-05-05 13:13 52.91974 1.26136 35001 ft 450 kts 113°
2026-05-05 13:14 52.89755 1.35833 35002 ft 450 kts 112°
2026-05-05 13:14 52.87551 1.45511 35002 ft 449 kts 113°
2026-05-05 13:15 52.85333 1.55177 35005 ft 449 kts 113°
2026-05-05 13:15 52.83102 1.64840 35005 ft 450 kts 113°
2026-05-05 13:16 52.80861 1.74492 35004 ft 450 kts 114°
2026-05-05 13:16 52.78609 1.84143 35006 ft 450 kts 114°
2026-05-05 13:17 52.76352 1.93779 35002 ft 450 kts 114°
2026-05-05 13:17 52.74088 2.03392 34984 ft 449 kts 114°
2026-05-05 13:18 52.71823 2.12988 34986 ft 449 kts 114°
2026-05-05 13:18 52.69547 2.22576 34987 ft 449 kts 114°
2026-05-05 13:19 52.67266 2.32143 34984 ft 449 kts 114°
2026-05-05 13:19 52.64996 2.41651 34987 ft 449 kts 114°
2026-05-05 13:20 52.62694 2.51220 34978 ft 450 kts 114°
2026-05-05 13:20 52.60376 2.60773 34980 ft 449 kts 114°
2026-05-05 13:21 52.58058 2.70326 34974 ft 450 kts 115°
2026-05-05 13:21 52.55732 2.79873 34974 ft 450 kts 115°
2026-05-05 13:22 52.53305 2.89329 34971 ft 449 kts 117°
2026-05-05 13:22 52.50616 2.98564 34972 ft 448 kts 119°
2026-05-05 13:23 52.47854 3.07735 34953 ft 449 kts 119°
2026-05-05 13:23 52.45125 3.16946 34963 ft 449 kts 118°
2026-05-05 13:24 52.42424 3.26179 34965 ft 449 kts 118°
2026-05-05 13:24 52.39720 3.35403 34971 ft 449 kts 118°
2026-05-05 13:25 52.37013 3.44544 34968 ft 449 kts 118°
2026-05-05 13:25 52.34285 3.53736 34963 ft 449 kts 119°
2026-05-05 13:26 52.31554 3.62905 34963 ft 449 kts 119°
2026-05-05 13:26 52.28816 3.72055 34966 ft 448 kts 119°
2026-05-05 13:27 52.26069 3.81189 34962 ft 448 kts 119°
2026-05-05 13:27 52.23323 3.90311 34958 ft 448 kts 119°
2026-05-05 13:28 52.20573 3.99420 34937 ft 447 kts 121°
2026-05-05 13:28 52.17817 4.08489 34961 ft 446 kts 121°
2026-05-05 13:29 52.15056 4.17525 34947 ft 445 kts 121°
2026-05-05 13:29 52.12304 4.26527 34948 ft 444 kts 121°
2026-05-05 13:30 52.09544 4.35509 34938 ft 443 kts 121°
2026-05-05 13:30 52.06780 4.44467 34940 ft 443 kts 121°
2026-05-05 13:31 52.04017 4.53407 34930 ft 443 kts 121°
2026-05-05 13:31 52.01245 4.62342 34921 ft 443 kts 121°
2026-05-05 13:32 51.98463 4.71263 34932 ft 443 kts 121°
2026-05-05 13:32 51.95679 4.80162 34919 ft 443 kts 121°
2026-05-05 13:33 51.92889 4.89050 34913 ft 442 kts 122°
2026-05-05 13:33 51.90110 4.97855 34916 ft 442 kts 122°
2026-05-05 13:34 51.87291 5.06756 34923 ft 441 kts 122°
2026-05-05 13:34 51.84514 5.15530 34912 ft 441 kts 122°
2026-05-05 13:35 51.81707 5.24340 34921 ft 441 kts 122°
2026-05-05 13:35 51.78892 5.33134 34917 ft 440 kts 122°
2026-05-05 13:36 51.76075 5.41917 34884 ft 441 kts 122°
2026-05-05 13:36 51.73244 5.50698 34895 ft 442 kts 122°
2026-05-05 13:37 51.70402 5.59491 34888 ft 442 kts 122°
2026-05-05 13:37 51.67550 5.68289 34913 ft 443 kts 122°
2026-05-05 13:38 51.64691 5.77076 34919 ft 443 kts 122°
2026-05-05 13:38 51.61827 5.85841 34923 ft 442 kts 122°
2026-05-05 13:39 51.58960 5.94574 34929 ft 441 kts 122°
2026-05-05 13:39 51.56104 6.03294 34936 ft 440 kts 122°
2026-05-05 13:40 51.53241 6.11976 34933 ft 440 kts 123°
2026-05-05 13:40 51.50357 6.20628 34924 ft 438 kts 124°
2026-05-05 13:41 51.47019 6.28721 34897 ft 435 kts 129°
2026-05-05 13:41 51.43612 6.36758 34877 ft 437 kts 129°
2026-05-05 13:42 51.40195 6.44820 34868 ft 438 kts 129°
2026-05-05 13:42 51.36773 6.52883 34866 ft 437 kts 129°
2026-05-05 13:43 51.33349 6.60917 34864 ft 437 kts 129°
2026-05-05 13:43 51.29920 6.68916 34884 ft 436 kts 129°
2026-05-05 13:44 51.26489 6.76884 34877 ft 435 kts 130°
2026-05-05 13:44 51.23063 6.84838 34880 ft 435 kts 130°
2026-05-05 13:45 51.19636 6.92772 34879 ft 435 kts 130°
2026-05-05 13:45 51.16202 7.00694 34871 ft 434 kts 130°
2026-05-05 13:46 51.13345 7.07263 34858 ft 434 kts 130°
2026-05-05 13:46 51.09906 7.15153 34855 ft 433 kts 130°
2026-05-05 13:47 51.06470 7.23004 34874 ft 432 kts 130°
2026-05-05 13:47 51.03048 7.30817 34871 ft 430 kts 130°
2026-05-05 13:48 50.99635 7.38595 34867 ft 428 kts 130°
2026-05-05 13:48 50.96213 7.46342 34865 ft 428 kts 130°
2026-05-05 13:49 50.92790 7.54069 34848 ft 428 kts 131°
2026-05-05 13:49 50.89370 7.61780 34813 ft 428 kts 131°
2026-05-05 13:50 50.85936 7.69479 34826 ft 428 kts 131°
2026-05-05 13:50 50.82222 7.76730 34837 ft 419 kts 142°
2026-05-05 13:51 50.77976 7.83037 34843 ft 418 kts 142°
2026-05-05 13:51 50.73729 7.89339 34855 ft 419 kts 142°
2026-05-05 13:52 50.69475 7.95659 34865 ft 420 kts 142°
2026-05-05 13:52 50.65247 8.01926 34844 ft 420 kts 142°
2026-05-05 13:53 50.60949 8.08272 34798 ft 421 kts 141°
2026-05-05 13:53 50.57165 8.15345 34803 ft 426 kts 134°
2026-05-05 13:54 50.53472 8.22625 34809 ft 425 kts 134°
2026-05-05 13:54 50.49761 8.29924 34803 ft 425 kts 134°
2026-05-05 13:55 50.46066 8.37158 34789 ft 425 kts 134°
2026-05-05 13:55 50.42364 8.44371 34776 ft 425 kts 135°
2026-05-05 13:56 50.38644 8.51580 34794 ft 426 kts 135°
2026-05-05 13:56 50.34816 8.58540 34806 ft 423 kts 138°
2026-05-05 13:57 50.30771 8.65215 34830 ft 422 kts 139°
2026-05-05 13:57 50.26705 8.71812 34838 ft 420 kts 139°
2026-05-05 13:58 50.22698 8.78443 34842 ft 419 kts 138°
2026-05-05 13:58 50.18716 8.85091 34838 ft 419 kts 138°
2026-05-05 13:59 50.12738 8.95022 34834 ft 418 kts 138°
2026-05-05 14:00 50.06746 9.04907 34823 ft 418 kts 139°
2026-05-05 14:00 50.02747 9.11478 34825 ft 418 kts 138°
2026-05-05 14:01 49.98754 9.18039 34799 ft 418 kts 138°
2026-05-05 14:01 49.94745 9.24603 34799 ft 419 kts 138°
2026-05-05 14:02 49.90724 9.31160 34804 ft 419 kts 137°
2026-05-05 14:02 49.86700 9.37714 34801 ft 420 kts 138°
2026-05-05 14:03 49.82665 9.44271 34805 ft 420 kts 138°
2026-05-05 14:03 49.78625 9.50824 34809 ft 421 kts 137°
2026-05-05 14:04 49.74588 9.57353 34799 ft 419 kts 138°
2026-05-05 14:04 49.70540 9.63858 34799 ft 420 kts 138°
2026-05-05 14:05 49.66481 9.70365 34806 ft 421 kts 138°
2026-05-05 14:05 49.62426 9.76880 34817 ft 421 kts 138°
2026-05-05 14:06 49.58369 9.83376 34828 ft 421 kts 138°
2026-05-05 14:06 49.54303 9.89863 34836 ft 420 kts 138°
2026-05-05 14:07 49.50244 9.96333 34820 ft 420 kts 138°
2026-05-05 14:07 49.46172 10.02796 34825 ft 421 kts 138°
2026-05-05 14:08 49.42095 10.09255 34834 ft 421 kts 138°
2026-05-05 14:08 49.38015 10.15694 34823 ft 420 kts 139°
2026-05-05 14:09 49.33937 10.22124 34817 ft 421 kts 139°
2026-05-05 14:09 49.29847 10.28545 34797 ft 421 kts 139°
2026-05-05 14:10 49.25773 10.34923 34786 ft 422 kts 139°
2026-05-05 14:10 49.21655 10.41320 34795 ft 422 kts 140°
2026-05-05 14:11 49.17452 10.47572 34810 ft 422 kts 140°
2026-05-05 14:11 49.13216 10.53782 34810 ft 422 kts 140°
2026-05-05 14:12 49.08996 10.59996 34811 ft 422 kts 140°
2026-05-05 14:12 49.04795 10.66208 34780 ft 420 kts 140°
2026-05-05 14:13 49.00593 10.72416 34787 ft 421 kts 140°
2026-05-05 14:13 48.96381 10.78607 34785 ft 422 kts 140°
2026-05-05 14:14 48.92154 10.84802 34799 ft 422 kts 140°
2026-05-05 14:14 48.87921 10.90991 34808 ft 423 kts 140°
2026-05-05 14:15 48.83682 10.97169 34802 ft 422 kts 140°
2026-05-05 14:15 48.79441 11.03339 34781 ft 423 kts 140°
2026-05-05 14:16 48.75181 11.09522 34787 ft 424 kts 140°
2026-05-05 14:16 48.70912 11.15713 34794 ft 425 kts 140°
2026-05-05 14:17 48.66631 11.21891 34799 ft 425 kts 140°
2026-05-05 14:17 48.62398 11.28139 34766 ft 427 kts 137°
2026-05-05 14:18 48.58402 11.34804 34747 ft 429 kts 135°
2026-05-05 14:18 48.54465 11.41594 34752 ft 430 kts 135°
2026-05-05 14:19 48.50472 11.48317 34764 ft 431 kts 136°
2026-05-05 14:19 48.46418 11.54984 34766 ft 432 kts 136°
2026-05-05 14:20 48.42352 11.61644 34768 ft 432 kts 136°
2026-05-05 14:20 48.38292 11.68310 34776 ft 432 kts 136°
2026-05-05 14:21 48.34232 11.74972 34758 ft 433 kts 136°
2026-05-05 14:21 48.30155 11.81652 34762 ft 434 kts 136°
2026-05-05 14:22 48.26071 11.88323 34767 ft 434 kts 136°
2026-05-05 14:22 48.21978 11.94990 34767 ft 434 kts 136°
2026-05-05 14:23 48.17876 12.01635 34765 ft 434 kts 136°
2026-05-05 14:23 48.13782 12.08275 34747 ft 433 kts 136°
2026-05-05 14:24 48.09677 12.14905 34741 ft 435 kts 136°
2026-05-05 14:24 48.05581 12.21493 34746 ft 436 kts 136°
2026-05-05 14:25 48.01453 12.28137 34752 ft 436 kts 136°
2026-05-05 14:25 47.97318 12.34773 34747 ft 437 kts 137°
2026-05-05 14:26 47.93135 12.41444 34747 ft 437 kts 137°
2026-05-05 14:26 47.88975 12.48062 34747 ft 438 kts 137°
2026-05-05 14:27 47.84841 12.54648 34757 ft 438 kts 137°
2026-05-05 14:27 47.80671 12.61277 34753 ft 439 kts 137°
2026-05-05 14:28 47.76494 12.67887 34755 ft 439 kts 137°
2026-05-05 14:28 47.72313 12.74494 34726 ft 439 kts 137°
2026-05-05 14:29 47.68105 12.81105 34730 ft 441 kts 137°
2026-05-05 14:29 47.63810 12.87595 34738 ft 441 kts 139°
2026-05-05 14:30 47.59431 12.93985 34745 ft 442 kts 139°
2026-05-05 14:30 47.55048 13.00373 34765 ft 442 kts 139°
2026-05-05 14:31 47.50683 13.06785 34761 ft 442 kts 139°
2026-05-05 14:31 47.46319 13.13205 34781 ft 442 kts 139°
2026-05-05 14:32 47.42657 13.18580 34780 ft 444 kts 139°
2026-05-05 14:32 47.38262 13.25001 34793 ft 445 kts 139°
2026-05-05 14:33 47.33849 13.31421 34822 ft 445 kts 139°
2026-05-05 14:33 47.29589 13.38070 34810 ft 446 kts 134°
2026-05-05 14:34 47.25631 13.45044 34832 ft 448 kts 132°
2026-05-05 14:34 47.21669 13.52118 34853 ft 448 kts 133°
2026-05-05 14:35 47.17639 13.59092 34853 ft 448 kts 134°
2026-05-05 14:35 47.13553 13.66028 34880 ft 449 kts 134°
2026-05-05 14:36 47.09460 13.72974 34870 ft 449 kts 134°
2026-05-05 14:36 47.05378 13.79901 34884 ft 449 kts 134°
2026-05-05 14:37 47.01291 13.86823 34900 ft 448 kts 134°
2026-05-05 14:37 46.97204 13.93747 34899 ft 449 kts 134°
2026-05-05 14:38 46.93112 14.00652 34910 ft 449 kts 134°
2026-05-05 14:38 46.89004 14.07556 34902 ft 450 kts 134°
2026-05-05 14:39 46.84895 14.14450 34917 ft 450 kts 134°
2026-05-05 14:39 46.80770 14.21339 34925 ft 450 kts 134°
2026-05-05 14:40 46.76657 14.28217 34930 ft 449 kts 134°
2026-05-05 14:40 46.72545 14.35072 34921 ft 449 kts 134°
2026-05-05 14:41 46.68558 14.42087 34930 ft 450 kts 131°
2026-05-05 14:41 46.64711 14.49283 34918 ft 451 kts 130°
2026-05-05 14:42 46.60775 14.56414 34927 ft 452 kts 134°
2026-05-05 14:42 46.56511 14.63122 34931 ft 451 kts 137°
2026-05-05 14:43 46.52145 14.69650 34933 ft 450 kts 137°
2026-05-05 14:43 46.47831 14.76231 34963 ft 450 kts 136°
2026-05-05 14:44 46.43571 14.82869 34959 ft 449 kts 136°
2026-05-05 14:44 46.39313 14.89503 34956 ft 450 kts 136°
2026-05-05 14:45 46.35062 14.96064 34933 ft 450 kts 138°
2026-05-05 14:45 46.30758 15.02674 34964 ft 451 kts 136°
2026-05-05 14:46 46.26465 15.09280 34974 ft 450 kts 136°
2026-05-05 14:46 46.22169 15.15860 34978 ft 449 kts 136°
2026-05-05 14:47 46.17882 15.22413 34984 ft 448 kts 136°
2026-05-05 14:47 46.13595 15.28957 34958 ft 448 kts 136°
2026-05-05 14:48 46.09305 15.35477 34965 ft 448 kts 136°
2026-05-05 14:48 46.05009 15.41984 34964 ft 448 kts 136°
2026-05-05 14:49 46.00714 15.48486 34964 ft 448 kts 136°
2026-05-05 14:49 45.96419 15.54973 34960 ft 448 kts 136°
2026-05-05 14:50 45.92124 15.61444 34957 ft 447 kts 136°
2026-05-05 14:50 45.87819 15.67898 34946 ft 448 kts 137°
2026-05-05 14:51 45.83502 15.74368 34948 ft 450 kts 136°
2026-05-05 14:51 45.79170 15.80849 34952 ft 451 kts 136°
2026-05-05 14:52 45.74827 15.87333 34958 ft 451 kts 137°
2026-05-05 14:52 45.70480 15.93804 34988 ft 450 kts 136°
2026-05-05 14:53 45.66134 16.00249 34973 ft 450 kts 136°
2026-05-05 14:53 45.61789 16.06684 34979 ft 450 kts 136°
2026-05-05 14:54 45.57446 16.13118 34983 ft 450 kts 137°
2026-05-05 14:54 45.53099 16.19529 34974 ft 449 kts 136°
2026-05-05 14:55 45.48754 16.25907 34994 ft 448 kts 136°
2026-05-05 14:55 45.44420 16.32257 34990 ft 447 kts 137°
2026-05-05 14:56 45.40088 16.38595 34993 ft 447 kts 137°
2026-05-05 14:56 45.35785 16.44877 34970 ft 447 kts 137°
2026-05-05 14:57 45.31444 16.51203 34962 ft 447 kts 137°
2026-05-05 14:57 45.27072 16.57561 34984 ft 447 kts 137°
2026-05-05 14:58 45.22757 16.63822 34971 ft 446 kts 137°
2026-05-05 14:58 45.18409 16.70106 34968 ft 446 kts 137°
2026-05-05 14:59 45.14064 16.76397 34967 ft 446 kts 137°
2026-05-05 14:59 45.09719 16.82676 34964 ft 447 kts 137°
2026-05-05 15:00 45.06103 16.87888 34970 ft 447 kts 137°
2026-05-05 15:00 45.01010 16.95212 34962 ft 447 kts 137°
2026-05-05 15:01 44.96658 17.01463 34963 ft 446 kts 137°
2026-05-05 15:01 44.92299 17.07706 34955 ft 446 kts 137°
2026-05-05 15:02 44.87941 17.13925 34957 ft 446 kts 137°
2026-05-05 15:02 44.83579 17.20134 34950 ft 446 kts 137°
2026-05-05 15:03 44.79206 17.26351 34954 ft 447 kts 137°
2026-05-05 15:03 44.74858 17.32521 34951 ft 447 kts 137°
2026-05-05 15:04 44.70479 17.38718 34956 ft 447 kts 137°
2026-05-05 15:04 44.66088 17.44904 34964 ft 447 kts 137°
2026-05-05 15:05 44.59515 17.54166 34960 ft 447 kts 138°
2026-05-05 15:06 44.55115 17.60342 34958 ft 448 kts 138°
2026-05-05 15:06 44.50706 17.66513 34962 ft 448 kts 138°
2026-05-05 15:07 44.46287 17.72679 34957 ft 449 kts 138°
2026-05-05 15:07 44.41861 17.78856 34972 ft 450 kts 138°
2026-05-05 15:08 44.37426 17.85022 34964 ft 450 kts 138°
2026-05-05 15:08 44.32983 17.91191 34947 ft 451 kts 137°
2026-05-05 15:09 44.28529 17.97371 34957 ft 452 kts 137°
2026-05-05 15:09 44.24053 18.03560 34965 ft 453 kts 138°
2026-05-05 15:10 44.19568 18.09737 34973 ft 454 kts 138°
2026-05-05 15:10 44.15103 18.15868 34977 ft 455 kts 137°
2026-05-05 15:11 44.10593 18.22059 34992 ft 456 kts 137°
2026-05-05 15:11 44.06066 18.28256 35002 ft 458 kts 138°
2026-05-05 15:12 44.01521 18.34460 35020 ft 458 kts 138°
2026-05-05 15:12 43.96975 18.40652 35026 ft 458 kts 138°
2026-05-05 15:13 43.92424 18.46846 35030 ft 458 kts 138°
2026-05-05 15:13 43.87869 18.53030 35049 ft 458 kts 139°
2026-05-05 15:14 43.83311 18.59202 35027 ft 459 kts 139°
2026-05-05 15:14 43.78731 18.65375 35022 ft 460 kts 138°
2026-05-05 15:15 43.74149 18.71564 35015 ft 461 kts 138°
2026-05-05 15:15 43.69557 18.77749 35006 ft 461 kts 138°
2026-05-05 15:16 43.64959 18.83896 35026 ft 460 kts 138°
2026-05-05 15:16 43.60361 18.90045 35018 ft 460 kts 138°
2026-05-05 15:17 43.55753 18.96201 34994 ft 461 kts 138°
2026-05-05 15:17 43.51134 19.02362 35006 ft 463 kts 138°
2026-05-05 15:18 43.46505 19.08529 35010 ft 463 kts 139°
2026-05-05 15:18 43.41859 19.14699 35015 ft 464 kts 138°
2026-05-05 15:19 43.37228 19.20814 35024 ft 465 kts 138°
2026-05-05 15:19 43.32561 19.26972 35021 ft 465 kts 138°
2026-05-05 15:20 43.28647 19.32128 35023 ft 466 kts 138°
2026-05-05 15:20 43.23202 19.39284 35021 ft 467 kts 138°
2026-05-05 15:21 43.18521 19.45432 35020 ft 467 kts 138°
2026-05-05 15:21 43.14591 19.50584 35038 ft 467 kts 138°
2026-05-05 15:22 43.09889 19.56721 35037 ft 467 kts 138°
2026-05-05 15:22 43.05189 19.62844 35045 ft 467 kts 138°
2026-05-05 15:23 43.00488 19.68956 35043 ft 466 kts 138°
2026-05-05 15:23 42.95788 19.75060 35041 ft 466 kts 138°
2026-05-05 15:24 42.91115 19.81110 35036 ft 466 kts 138°
2026-05-05 15:24 42.86407 19.87205 35028 ft 467 kts 138°
2026-05-05 15:25 42.81664 19.93346 35038 ft 467 kts 139°
2026-05-05 15:25 42.76957 19.99379 35039 ft 469 kts 139°
2026-05-05 15:26 42.72511 20.05898 35049 ft 472 kts 131°
2026-05-05 15:26 42.68358 20.12784 35086 ft 471 kts 130°
2026-05-05 15:27 42.64147 20.19705 35052 ft 472 kts 130°
2026-05-05 15:27 42.59992 20.26542 35036 ft 473 kts 130°
2026-05-05 15:28 42.55810 20.33419 35040 ft 472 kts 130°
2026-05-05 15:28 42.51616 20.40293 35038 ft 473 kts 130°
2026-05-05 15:29 42.47404 20.47165 35033 ft 474 kts 130°
2026-05-05 15:29 42.43188 20.54033 35025 ft 475 kts 130°
2026-05-05 15:30 42.38960 20.60907 35042 ft 475 kts 130°
2026-05-05 15:30 42.34722 20.67776 35041 ft 476 kts 130°
2026-05-05 15:31 42.30477 20.74644 35032 ft 476 kts 130°
2026-05-05 15:31 42.26227 20.81511 35035 ft 477 kts 130°
2026-05-05 15:32 42.21965 20.88381 35027 ft 477 kts 130°
2026-05-05 15:32 42.17691 20.95236 35024 ft 478 kts 130°
2026-05-05 15:33 42.13305 21.01975 35004 ft 478 kts 138°
2026-05-05 15:33 42.10744 21.04830 34881 ft 478 kts 146°
2026-05-05 15:33 42.07908 21.07134 34634 ft 476 kts 157°
2026-05-05 15:33 42.04863 21.08827 34400 ft 473 kts 162°
2026-05-05 15:34 42.01782 21.10406 34293 ft 473 kts 163°
2026-05-05 15:34 41.95627 21.13484 34379 ft 477 kts 163°
2026-05-05 15:34 41.92516 21.15027 34231 ft 477 kts 162°
2026-05-05 15:35 41.89382 21.16581 33392 ft 482 kts 162°
2026-05-05 15:35 41.86263 21.18138 32909 ft 475 kts 162°
2026-05-05 15:35 41.83173 21.19689 32350 ft 473 kts 162°
2026-05-05 15:35 41.80103 21.21245 31815 ft 470 kts 162°
2026-05-05 15:36 41.77061 21.22809 31279 ft 467 kts 162°
2026-05-05 15:36 41.74034 21.24375 30754 ft 465 kts 162°
2026-05-05 15:36 41.71020 21.25932 30235 ft 463 kts 162°
2026-05-05 15:36 41.68029 21.27471 29658 ft 458 kts 162°
2026-05-05 15:37 41.65069 21.28990 29153 ft 453 kts 162°
2026-05-05 15:37 41.62138 21.30488 28651 ft 449 kts 162°
2026-05-05 15:37 41.59229 21.31969 28149 ft 446 kts 162°
2026-05-05 15:37 41.56345 21.33434 27642 ft 441 kts 162°
2026-05-05 15:38 41.53485 21.34882 27166 ft 437 kts 162°
2026-05-05 15:38 41.50652 21.36317 26703 ft 434 kts 161°
2026-05-05 15:38 41.47850 21.37738 26234 ft 429 kts 161°
2026-05-05 15:38 41.45074 21.39149 25785 ft 425 kts 161°
2026-05-05 15:39 41.42318 21.40543 25339 ft 421 kts 161°
2026-05-05 15:39 41.39591 21.41921 24905 ft 417 kts 161°
2026-05-05 15:39 41.36914 21.43364 24475 ft 414 kts 155°
2026-05-05 15:39 41.34453 21.45321 24044 ft 411 kts 143°
2026-05-05 15:40 41.32302 21.47806 23600 ft 408 kts 133°
2026-05-05 15:40 41.30526 21.50709 23125 ft 403 kts 124°
2026-05-05 15:40 41.28885 21.53701 22693 ft 398 kts 125°
2026-05-05 15:40 41.27255 21.56645 22268 ft 394 kts 125°
2026-05-05 15:41 41.25634 21.59556 21831 ft 390 kts 125°
2026-05-05 15:41 41.24021 21.62433 21401 ft 386 kts 126°
2026-05-05 15:41 41.22428 21.65272 20962 ft 382 kts 126°
2026-05-05 15:41 41.20847 21.68092 20532 ft 379 kts 125°
2026-05-05 15:42 41.19282 21.70891 20105 ft 376 kts 125°
2026-05-05 15:42 41.17735 21.73670 19662 ft 374 kts 125°
2026-05-05 15:42 41.16196 21.76436 19249 ft 371 kts 125°
2026-05-05 15:42 41.14665 21.79186 18832 ft 370 kts 125°
2026-05-05 15:43 41.13136 21.81922 18395 ft 369 kts 125°
2026-05-05 15:43 41.11610 21.84651 17927 ft 367 kts 124°
2026-05-05 15:43 41.10100 21.87349 17505 ft 363 kts 125°
2026-05-05 15:43 41.08597 21.90021 17095 ft 360 kts 125°
2026-05-05 15:44 41.07109 21.92658 16780 ft 353 kts 125°
2026-05-05 15:44 41.05661 21.95217 16688 ft 340 kts 124°
2026-05-05 15:44 41.04263 21.97678 16626 ft 331 kts 125°
2026-05-05 15:44 41.02871 22.00126 16561 ft 334 kts 125°
2026-05-05 15:45 41.01468 22.02590 16486 ft 335 kts 125°
2026-05-05 15:45 41.00084 22.05014 16405 ft 334 kts 125°
2026-05-05 15:45 40.98669 22.07497 16319 ft 333 kts 125°
2026-05-05 15:45 40.97293 22.09911 16245 ft 333 kts 125°
2026-05-05 15:46 40.95879 22.12386 16167 ft 332 kts 125°
2026-05-05 15:46 40.94506 22.14790 16102 ft 332 kts 124°
2026-05-05 15:46 40.93116 22.17227 15896 ft 332 kts 124°
2026-05-05 15:46 40.91729 22.19654 15490 ft 330 kts 124°
2026-05-05 15:47 40.90348 22.22064 15095 ft 329 kts 125°
2026-05-05 15:47 40.89413 22.23694 14829 ft 328 kts 124°
2026-05-05 15:47 40.87589 22.26870 14323 ft 327 kts 125°
2026-05-05 15:47 40.86218 22.29259 13917 ft 326 kts 125°
2026-05-05 15:48 40.84854 22.31637 13484 ft 324 kts 125°
2026-05-05 15:48 40.83497 22.34001 13075 ft 322 kts 125°
2026-05-05 15:48 40.82145 22.36351 12680 ft 320 kts 125°
2026-05-05 15:48 40.80804 22.38685 12274 ft 319 kts 126°
2026-05-05 15:49 40.79468 22.41010 11860 ft 318 kts 126°
2026-05-05 15:49 40.78130 22.43330 11479 ft 316 kts 126°
2026-05-05 15:49 40.76800 22.45631 11074 ft 315 kts 126°
2026-05-05 15:49 40.75474 22.47923 10675 ft 314 kts 126°
2026-05-05 15:50 40.74152 22.50213 10292 ft 314 kts 126°
2026-05-05 15:50 40.72848 22.52469 10093 ft 305 kts 126°
2026-05-05 15:50 40.71575 22.54671 9952 ft 300 kts 127°
2026-05-05 15:50 40.70309 22.56857 9738 ft 302 kts 127°
2026-05-05 15:51 40.69017 22.59087 9188 ft 305 kts 127°
2026-05-05 15:51 40.67745 22.61289 8915 ft 299 kts 127°
2026-05-05 15:51 40.66515 22.63431 8798 ft 287 kts 124°
2026-05-05 15:51 40.65790 22.65774 8525 ft 274 kts 92°
2026-05-05 15:52 40.66142 22.68153 8084 ft 264 kts 57°
2026-05-05 15:52 40.67376 22.69888 7564 ft 261 kts 36°
2026-05-05 15:52 40.68793 22.71388 7101 ft 261 kts 39°
2026-05-05 15:52 40.70100 22.73060 6663 ft 264 kts 46°
2026-05-05 15:53 40.71249 22.74936 6356 ft 262 kts 52°
2026-05-05 15:53 40.72269 22.76937 6003 ft 262 kts 56°
2026-05-05 15:53 40.73177 22.78981 5733 ft 255 kts 60°
2026-05-05 15:53 40.73982 22.81044 5435 ft 251 kts 62°
2026-05-05 15:54 40.74688 22.83117 5140 ft 246 kts 65°
2026-05-05 15:54 40.75304 22.85221 4852 ft 245 kts 69°
2026-05-05 15:54 40.75653 22.87405 4536 ft 245 kts 95°
2026-05-05 15:54 40.75010 22.89411 4290 ft 238 kts 136°
2026-05-05 15:55 40.73616 22.90395 4033 ft 225 kts 173°
2026-05-05 15:55 40.72096 22.90710 3764 ft 220 kts 171°
2026-05-05 15:55 40.70607 22.91148 3472 ft 218 kts 169°
2026-05-05 15:55 40.69142 22.91617 3200 ft 215 kts 168°
2026-05-05 15:56 40.67709 22.92076 2936 ft 208 kts 169°
2026-05-05 15:56 40.66329 22.92519 2658 ft 199 kts 168°
2026-05-05 15:56 40.65015 22.92939 2417 ft 192 kts 168°
2026-05-05 15:56 40.63746 22.93343 2165 ft 185 kts 169°
2026-05-05 15:57 40.62530 22.93732 1914 ft 174 kts 169°
2026-05-05 15:57 40.61396 22.94095 1692 ft 162 kts 168°
2026-05-05 15:57 40.60319 22.94438 1486 ft 156 kts 168°
2026-05-05 15:57 40.59288 22.94765 1297 ft 150 kts 168°
2026-05-05 15:58 40.58288 22.95083 1091 ft 147 kts 168°
2026-05-05 15:58 40.57298 22.95398 903 ft 147 kts 167°
2026-05-05 15:58 40.56302 22.95714 714 ft 147 kts 168°
2026-05-05 15:58 40.55313 22.96026 520 ft 146 kts 168°
2026-05-05 15:59 40.54340 22.96341 359 ft 143 kts 168°
2026-05-05 15:59 40.53388 22.96641 149 ft 141 kts 167°
2026-05-05 15:59 40.52447 22.96944 31 ft 132 kts 167°
2026-05-05 15:59 40.51706 22.97171 30 ft 85 kts 168°
2026-05-05 16:00 40.51252 22.97315 31 ft 52 kts 166°
2026-05-05 16:00 40.51011 22.97398 28 ft 22 kts 159°
2026-05-05 16:00 40.50966 22.97536 28 ft 18 kts 70°
2026-05-05 16:00 40.51064 22.97568 29 ft 15 kts 347°
2026-05-05 16:01 40.51161 22.97537 29 ft 14 kts 346°
2026-05-05 16:01 40.51250 22.97508 29 ft 13 kts 346°
2026-05-05 16:01 40.51331 22.97482 29 ft 12 kts 346°
2026-05-05 16:01 40.51418 22.97455 29 ft 15 kts 346°
2026-05-05 16:02 40.51537 22.97416 29 ft 21 kts 346°
2026-05-05 16:02 40.51697 22.97366 29 ft 25 kts 346°
2026-05-05 16:02 40.51865 22.97313 27 ft 25 kts 346°
2026-05-05 16:02 40.52018 22.97262 27 ft 16 kts 347°
2026-05-05 16:03 40.52101 22.97289 28 ft 12 kts 82°
2026-05-05 16:03 40.52088 22.97399 28 ft 12 kts 102°
2026-05-05 16:03 40.52067 22.97502 28 ft 11 kts 104°
2026-05-05 16:03 40.52049 22.97590 28 ft 9 kts 104°
2026-05-05 16:04 40.52032 22.97677 29 ft 11 kts 105°
2026-05-05 16:04 40.52066 22.97749 29 ft 12 kts 348°
2026-05-05 16:04 40.52140 22.97668 29 ft 15 kts 318°
2026-05-05 16:04 40.52212 22.97644 29 ft 9 kts 37°
2026-05-05 16:05 40.52245 22.97689 29 ft 0 kts 45°